Home   Weather   Columbus Township Park   Past weeks
Flag for USA

Past Weather in Columbus Township Park, Michigan, USA — Yesterday and Last 2 Weeks

Now
43 °F

Light rain. Mostly cloudy.


Feels Like: 35 °F
Forecast: 46 / 41 °F
Wind: 17 mph from North

Location: Schoolcraft County Airport

Current Time: Oct 16, 2019 at 6:01:42 am

Latest Report: Oct 16, 2019 at 5:35 am


Visibility: 10 mi

Pressure: 29.65 "Hg

Humidity: 97%

Dew Point: 42 °F

Location of Columbus Township ParkLocation

Past Weather in Columbus Township Park — Graph

°F

Columbus Township Park Temperature Yesterday

Maximum temperature yesterday: 48 °F (at 12:36 pm)
Minimum temperature yesterday: 31 °F (at 7:16 am)
Average temperature yesterday: 42 °F

High & Low Weather Summary for the Past Weeks

 TemperatureHumidityPressure
High66 °F (Oct 1, 7:36 am)98% (Oct 1, 5:20 am)30.48 "Hg (Oct 1, 5:20 am)
Low31 °F (Oct 15, 7:16 am)38% (Oct 7, 4:36 pm)29.61 "Hg (Oct 13, 1:58 am)
Average50 °F82%29.98 "Hg
* Reported Oct 1 4:35 am — Oct 16 4:57 am, Columbus Township Park. Weather by CustomWeather, © 2019

Note: Actual official high and low records may vary slightly from our data, if they occured in-between our weather recording intervals... More about our weather records

Advertising

Columbus Township Park Weather History for the Previous 24 Hours

Scroll right to see more
 ConditionsComfort  
Time TempWeatherWind HumidityBarometerVisibility
4:57 am
Wed, Oct 16
43 °FLight rain. Mostly cloudy.14 mph97%29.63 "Hg5 mi
4:15 am43 °FLight rain. Low clouds.21 mph97%29.63 "Hg5 mi
3:55 am43 °FLight rain. Low clouds.17 mph97%29.63 "Hg5 mi
3:36 am43 °FLight rain. Low clouds.20 mph97%29.63 "Hg2 mi
3:18 am43 °FLight rain. Low clouds.16 mph97%29.64 "Hg3 mi
2:55 am43 °FRain. Low clouds.18 mph97%29.64 "Hg3 mi
2:36 am43 °FRain. Low clouds.14 mph98%29.64 "Hg5 mi
1:57 am43 °FLight rain. Low clouds.14 mph97%29.64 "Hg7 mi
1:16 am43 °FLight rain. Low clouds.15 mph97%29.64 "Hg10 mi
12:56 am43 °FLight rain. Low clouds.13 mph97%29.65 "Hg3 mi
12:18 am43 °FLight rain. Low clouds.15 mph97%29.66 "Hg7 mi
12:00 am44 °FDrizzle. Low clouds.14 mph97%29.67 "Hg7 mi
11:36 pm
Tue, Oct 15
44 °FLight rain. Low clouds.13 mph97%29.68 "Hg10 mi
10:57 pm43 °FLight rain. Low clouds.10 mph98%29.69 "Hg7 mi
10:39 pm43 °FLight rain. Low clouds.13 mph98%29.69 "Hg10 mi
10:16 pm44 °FLight rain. Low clouds.9 mph98%29.70 "Hg3 mi
10:15 pm44 °FLight rain. Low clouds.9 mph98%29.70 "Hg3 mi
9:56 pm44 °FLight rain. Low clouds.9 mph98%29.69 "Hg7 mi
9:36 pm45 °FLight rain. Low clouds.8 mph98%29.69 "Hg10 mi
9:18 pm46 °FLight rain. Overcast.8 mph98%29.69 "Hg7 mi
8:55 pm46 °FLight rain. Mostly cloudy.12 mph97%29.70 "Hg10 mi
8:16 pm46 °FLight rain. Overcast.12 mph97%29.71 "Hg10 mi
7:57 pm46 °FLight rain. Overcast.8 mph96%29.72 "Hg10 mi
7:15 pm46 °FLight rain. Mostly cloudy.10 mph97%29.73 "Hg10 mi
6:56 pm46 °FOvercast.10 mph97%29.72 "Hg10 mi
6:36 pm46 °FLow clouds.10 mph97%29.73 "Hg10 mi
5:55 pm46 °FLight rain. Mostly cloudy.13 mph97%29.73 "Hg7 mi
5:36 pm46 °FLight rain. Mostly cloudy.13 mph97%29.77 "Hg7 mi
5:16 pm46 °FRain. Cloudy.12 mph97%29.78 "Hg7 mi
4:57 pm46 °FLight rain. Cloudy.9 mph97%29.78 "Hg5 mi
4:15 pm46 °FRain. More clouds than sun.7 mph98%29.80 "Hg7 mi
3:55 pm46 °FRain. Mostly cloudy.7 mph97%29.82 "Hg5 mi
3:35 pm47 °FRain. Mostly cloudy.6 mph97%29.83 "Hg5 mi
3:18 pm48 °FRain. Mostly cloudy.3 mph95%29.84 "Hg7 mi
2:55 pm48 °FRain. Mostly cloudy.7 mph95%29.83 "Hg5 mi
2:35 pm48 °FLight rain. Mostly cloudy.9 mph94%29.83 "Hg10 mi
1:57 pm47 °FLight rain. More clouds than sun.7 mph92%29.84 "Hg7 mi
1:15 pm48 °FRain. Cloudy.13 mph93%29.85 "Hg7 mi
12:56 pm48 °FLight rain. Cloudy.10 mph86%29.87 "Hg10 mi
12:36 pm48 °FLight rain. Mostly cloudy.8 mph86%29.87 "Hg10 mi
12:18 pm44 °FLight rain. Overcast.No wind95%29.88 "Hg10 mi
11:55 am44 °FLight rain. Overcast.6 mph88%29.90 "Hg10 mi
11:35 am44 °FOvercast.6 mph81%29.91 "Hg10 mi
11:16 am44 °FMostly cloudy.3 mph83%29.91 "Hg10 mi
10:57 am44 °FMore clouds than sun.3 mph83%29.92 "Hg10 mi
10:15 am43 °FDrizzle. Mostly cloudy.No wind85%29.92 "Hg10 mi
9:56 am43 °FMostly cloudy.No wind84%29.92 "Hg10 mi
9:36 am41 °FMore clouds than sun.No wind86%29.93 "Hg10 mi
9:18 am40 °FOvercast.No wind92%29.93 "Hg10 mi
8:55 am38 °FOvercast.No wind97%29.93 "Hg10 mi
8:35 am37 °FOvercast.No wind98%29.94 "Hg10 mi
7:57 am34 °FOvercast.No wind97%29.95 "Hg10 mi
7:16 am31 °FPassing clouds.No wind97%29.96 "Hg10 mi
6:56 am31 °FPassing clouds.No wind97%29.96 "Hg10 mi
6:36 am31 °FClear.No wind98%29.96 "Hg10 mi
6:18 am32 °FClear.No wind96%29.97 "Hg10 mi
Weather by CustomWeather, © 2019

See weather overview